TimeCDT,TemperatureF,Dew PointF,Humidity,Sea Level PressureIn,VisibilityMPH,Wind Direction,Wind SpeedMPH,Gust SpeedMPH,PrecipitationIn,Events,Conditions,WindDirDegrees,DateUTC
12:55 AM,51.8,46.4,82,29.97,8.0,South,8.1,-,N/A,,Overcast,170,2012-10-13 05:55:00
1:15 AM,51.8,48.2,88,29.95,10.0,South,9.2,-,N/A,,Overcast,170,2012-10-13 06:15:00
1:35 AM,51.8,48.2,88,29.95,10.0,South,9.2,-,N/A,,Overcast,180,2012-10-13 06:35:00
1:55 AM,51.8,48.2,88,29.93,10.0,SSE,9.2,-,N/A,,Unknown,160,2012-10-13 06:55:00
2:15 AM,51.8,48.2,88,29.92,10.0,South,9.2,-,N/A,,Overcast,170,2012-10-13 07:15:00
2:35 AM,51.8,48.2,88,29.92,4.0,South,10.4,-,N/A,Rain,Light Rain,170,2012-10-13 07:35:00
2:55 AM,51.8,50.0,94,29.91,7.0,South,9.2,-,0.02,,Unknown,170,2012-10-13 07:55:00
3:15 AM,51.8,50.0,94,29.90,6.0,South,8.1,-,N/A,,Mist,170,2012-10-13 08:15:00
3:35 AM,53.6,51.8,94,29.89,5.0,South,8.1,-,N/A,,Mist,170,2012-10-13 08:35:00
3:55 AM,53.6,51.8,94,29.87,3.0,SSE,6.9,-,0.03,,Light Drizzle,150,2012-10-13 08:55:00
4:15 AM,53.6,51.8,94,29.85,3.0,North,-9999.0,-,N/A,,Light Drizzle,0,2012-10-13 09:15:00
4:35 AM,53.6,53.6,100,29.86,3.0,South,10.4,16.1,N/A,,Mist,180,2012-10-13 09:35:00
4:55 AM,55.4,53.6,94,29.89,1.5,South,12.7,20.7,0.22,Rain,Light Rain,180,2012-10-13 09:55:00
5:15 AM,55.4,55.4,100,29.86,3.0,South,10.4,-,N/A,Rain,Rain,190,2012-10-13 10:15:00
5:35 AM,55.4,55.4,100,29.86,6.0,South,10.4,-,N/A,Rain,Light Rain,180,2012-10-13 10:35:00
5:55 AM,55.4,55.4,100,29.83,5.0,SSE,13.8,-,0.11,Rain,Light Rain,150,2012-10-13 10:55:00
6:15 AM,55.4,55.4,100,29.81,9.0,SE,11.5,-,N/A,,Unknown,140,2012-10-13 11:15:00
6:35 AM,55.4,55.4,100,29.82,6.0,SSE,9.2,-,N/A,,Mist,150,2012-10-13 11:35:00
6:55 AM,57.2,55.4,94,29.81,5.0,SSE,16.1,-,N/A,,Mist,150,2012-10-13 11:55:00
7:15 AM,57.2,57.2,100,29.81,3.0,SSE,11.5,-,N/A,,Mist,150,2012-10-13 12:15:00
7:35 AM,57.2,57.2,100,29.80,2.5,SE,10.4,-,N/A,,Mist,140,2012-10-13 12:35:00
7:55 AM,57.2,57.2,100,29.81,2.0,SSE,10.4,17.3,N/A,,Mostly Cloudy,160,2012-10-13 12:55:00
8:15 AM,59.0,57.2,94,29.82,2.0,South,5.8,-,N/A,,Mostly Cloudy,180,2012-10-13 13:15:00
8:55 AM,62.6,60.8,94,29.78,4.0,South,9.2,15.0,N/A,,Mist,190,2012-10-13 13:55:00
9:35 AM,62.6,60.8,94,29.78,6.0,South,11.5,-,N/A,,Mist,190,2012-10-13 14:35:00
9:55 AM,64.4,60.8,88,29.77,9.0,South,12.7,-,N/A,,Unknown,190,2012-10-13 14:55:00
10:15 AM,66.2,60.8,83,29.76,10.0,SSW,12.7,-,N/A,,Unknown,200,2012-10-13 15:15:00
10:35 AM,64.4,60.8,88,29.76,10.0,SSW,11.5,18.4,N/A,,Unknown,200,2012-10-13 15:35:00
10:55 AM,66.2,60.8,83,29.77,10.0,SSW,12.7,-,N/A,,Clear,200,2012-10-13 15:55:00
11:15 AM,68.0,60.8,78,29.73,10.0,South,9.2,17.3,N/A,,Scattered Clouds,190,2012-10-13 16:15:00
11:35 AM,68.0,60.8,78,29.76,10.0,SSW,18.4,-,N/A,,Mostly Cloudy,200,2012-10-13 16:35:00
11:55 AM,68.0,60.8,78,29.76,10.0,South,17.3,27.6,N/A,,Overcast,190,2012-10-13 16:55:00
12:35 PM,68.0,60.8,78,29.74,10.0,SSW,11.5,19.6,N/A,,Overcast,200,2012-10-13 17:35:00
12:55 PM,68.0,60.8,78,29.72,10.0,SSW,13.8,20.7,N/A,,Overcast,210,2012-10-13 17:55:00
1:15 PM,68.0,60.8,78,29.72,10.0,SSW,12.7,20.7,N/A,,Overcast,200,2012-10-13 18:15:00
1:35 PM,68.0,60.8,78,29.71,10.0,SSW,11.5,19.6,N/A,,Overcast,200,2012-10-13 18:35:00
1:55 PM,69.8,60.8,73,29.70,10.0,SW,13.8,-,N/A,,Overcast,220,2012-10-13 18:55:00
2:15 PM,69.8,62.6,78,29.70,10.0,SSW,13.8,-,N/A,,Overcast,210,2012-10-13 19:15:00
2:35 PM,69.8,60.8,73,29.69,10.0,SSW,10.4,18.4,N/A,,Overcast,200,2012-10-13 19:35:00
3:15 PM,69.8,60.8,73,29.68,10.0,SSW,6.9,13.8,N/A,,Overcast,210,2012-10-13 20:15:00
3:35 PM,71.6,60.8,69,29.67,10.0,SSW,8.1,-,N/A,,Overcast,210,2012-10-13 20:35:00
3:55 PM,71.6,62.6,73,29.67,10.0,Calm,Calm,-,N/A,,Overcast,0,2012-10-13 20:55:00
4:15 PM,71.6,62.6,73,29.67,10.0,WSW,4.6,-,N/A,,Overcast,250,2012-10-13 21:15:00
4:35 PM,71.6,62.6,73,29.66,10.0,Calm,Calm,-,N/A,,Overcast,0,2012-10-13 21:35:00
4:55 PM,71.6,62.6,73,29.66,10.0,Calm,Calm,-,N/A,,Overcast,0,2012-10-13 21:55:00
5:15 PM,71.6,62.6,73,29.66,10.0,Calm,Calm,-,N/A,,Overcast,0,2012-10-13 22:15:00
5:35 PM,71.6,62.6,73,29.66,10.0,SE,4.6,-,N/A,,Overcast,140,2012-10-13 22:35:00
5:55 PM,71.6,64.4,78,29.65,10.0,SSE,6.9,-,N/A,,Mostly Cloudy,150,2012-10-13 22:55:00
6:15 PM,71.6,64.4,78,29.65,10.0,SSE,9.2,-,N/A,,Overcast,160,2012-10-13 23:15:00
6:35 PM,71.6,64.4,78,29.65,10.0,South,10.4,-,N/A,,Unknown,170,2012-10-13 23:35:00
6:55 PM,69.8,64.4,83,29.65,10.0,SSE,11.5,-,N/A,,Overcast,160,2012-10-13 23:55:00
7:35 PM,68.0,64.4,88,29.63,9.0,South,9.2,16.1,N/A,,Scattered Clouds,170,2012-10-14 00:35:00
7:55 PM,68.0,64.4,88,29.62,9.0,SSE,11.5,-,N/A,,Mostly Cloudy,160,2012-10-14 00:55:00
8:35 PM,66.2,64.4,94,29.63,9.0,South,8.1,-,N/A,,Overcast,180,2012-10-14 01:35:00
8:55 PM,66.2,64.4,94,29.62,8.0,Calm,Calm,-,N/A,,Overcast,0,2012-10-14 01:55:00
9:15 PM,66.2,64.4,94,29.66,8.0,SSE,6.9,-,N/A,,Overcast,150,2012-10-14 02:15:00
9:35 PM,66.2,64.4,94,29.65,7.0,South,5.8,-,N/A,,Overcast,180,2012-10-14 02:35:00
9:55 PM,66.2,64.4,94,29.65,3.0,SSE,5.8,-,0.01,Rain,Light Rain,160,2012-10-14 02:55:00
10:15 PM,66.2,64.4,94,29.64,3.0,SW,9.2,-,N/A,Rain,Light Rain,220,2012-10-14 03:15:00
11:35 PM,64.4,60.8,88,29.57,10.0,NNE,8.1,-,N/A,,Scattered Clouds,20,2012-10-14 04:35:00